Вернуться в каталог

CS1

АктивенСвязьSSO
NORAD 49261·PAYLOAD·🇺🇸 United States

Запущен Sep 27, 2021 с Vandenberg Space Force Base

Loading…

Ближайшие Пролёты (ближайшие 24 часа)

TLE

СвежийSource: Space-Track

Эпоха: Sep 14, 2026, 09:39 UTC

1 49261U 21088B   26257.40248436  .00011985  00000-0  33302-3 0  9992
2 49261  97.3665 320.7865 0012779 117.4287 242.8259 15.36938966274110

Отслеживайте CS1 в реальном времени с AllMySat

Download on the App Store